Lid_Strength_Index
15 15 15 15 15 15 15 14 15 12 11 8 7 6 6 5 5 4 4 4 4 3 3 3 4 6 6 5 5 4 6 6 7 7 6 6 6 6 6 6 6 7 7 7
17 15 15 16 15 13 12 11 10 10 10 6 5 5 6 5 5 5 5 4 3 4 4 3 3 4 5 6 5 5 5 6 7 7 7 7 6 6 6 6 7 7 7 8
19 16 16 18 14 12 11 9 9 11 8 6 7 7 6 5 5 5 4 4 4 4 3 3 3 2 3 4 4 5 5 7 7 7 7 7 7 6 6 7 7 7 8 8
19 17 22 15 9 9 9 8 7 7 7 7 7 5 5 4 4 4 4 4 3 3 3 2 2 2 2 2 3 4 6 7 7 7 7 7 7 7 7 7 7 7 8 8
18 18 16 13 10 9 9 10 7 7 7 6 5 5 6 4 3 3 3 3 3 2 2 2 2 2 2 2 3 5 6 7 8 7 8 8 7 7 7 7 7 8 8 8
15 18 20 12 7 6 6 12 6 6 7 7 6 11 8 4 3 3 3 2 2 2 2 2 2 2 2 3 3 4 7 8 8 7 8 8 7 7 7 7 8 7 8 8
16 16 13 7 6 5 13 11 6 5 6 6 8 6 4 3 3 3 2 2 2 2 2 2 2 2 3 3 3 4 5 8 9 8 8 8 7 7 7 8 8 8 9 9
15 16 16 6 6 10 7 5 5 5 5 5 5 4 4 3 3 3 3 3 2 2 2 2 1 2 3 3 3 5 7 8 8 8 9 8 8 7 8 8 8 9 10 10
12 12 6 5 6 4 4 6 6 6 4 4 4 4 4 4 3 3 3 3 2 2 2 2 2 2 5 4 5 6 7 7 7 8 9 9 9 8 8 9 9 10 10 10
12 8 6 5 4 4 4 5 4 4 4 4 5 4 4 4 3 3 3 3 2 3 3 3 2 4 5 4 5 7 7 7 8 8 9 9 8 9 9 9 10 10 10 10
10 7 6 5 5 5 4 4 4 3 4 4 4 4 4 4 3 3 3 2 2 3 3 3 2 4 5 4 6 8 7 8 9 8 9 9 9 9 9 9 9 10 10 10
11 6 8 7 5 4 4 4 4 4 4 4 4 4 4 3 3 3 3 2 3 3 3 3 2 4 4 6 8 9 9 10 10 10 9 10 10 10 8 8 8 8 8 9
7 5 5 4 4 3 4 4 4 4 4 5 4 4 4 4 3 3 3 3 3 3 4 4 3 3 5 6 8 9 10 11 11 11 10 10 11 11 11 9 8 9 9 9
5 5 6 5 5 4 3 4 3 4 4 4 4 4 4 4 3 4 4 3 3 3 4 4 4 4 5 5 9 9 10 9 12 11 10 10 10 10 10 10 11 10 9 9
6 6 6 5 5 5 5 5 6 6 5 5 4 4 5 5 5 5 4 3 4 4 5 5 4 5 5 5 8 9 9 9 9 10 9 10 10 9 9 9 10 10 10 10
7 7 7 8 8 7 7 6 7 6 6 6 5 5 5 5 6 6 5 5 6 6 6 5 5 5 5 5 7 9 8 9 9 10 10 10 10 10 11 11 11 11 11 11
9 10 9 9 9 8 7 6 6 6 6 6 6 6 7 7 7 7 6 5 6 6 6 5 7 5 6 7 8 8 9 9 9 10 10 11 11 11 11 11 11 12 12 11
7 8 8 8 8 8 7 7 7 7 8 8 8 8 8 8 8 7 6 6 6 6 6 5 5 6 6 7 8 9 10 10 10 11 11 11 11 11 11 12 12 12 11 11
7 8 8 8 7 7 7 8 8 8 8 8 8 9 9 8 8 7 7 7 7 8 7 5 5 7 8 8 8 9 10 10 11 11 11 11 11 11 11 11 11 11 11 11
8 8 8 7 7 8 9 8 8 8 8 8 9 9 9 9 8 7 7 7 7 7 6 6 7 8 8 8 8 9 10 10 10 11 10 10 11 11 11 11 11 11 11 11
9 8 8 8 9 8 8 8 8 9 9 9 9 10 9 6 6 7 7 8 7 6 6 7 8 8 8 9 9 9 10 10 11 11 11 11 11 11 11 12 12 12 12 12
8 8 9 9 8 9 8 8 8 8 9 9 9 9 8 7 6 6 6 8 7 6 7 7 8 8 9 9 10 10 10 11 11 11 11 12 12 12 12 12 12 12 12 12
8 8 8 9 9 9 8 8 8 8 9 9 10 9 9 9 7 8 9 7 7 7 7 8 7 8 9 10 10 10 11 11 11 11 11 12 12 12 12 12 12 12 11 10
8 8 8 8 9 9 10 9 9 8 8 8 9 9 9 10 9 8 7 6 6 7 8 8 8 9 9 10 10 10 11 11 11 11 12 12 12 12 12 13 12 11 10 11
8 8 9 9 10 9 9 9 8 9 9 9 9 9 8 8 9 9 8 8 7 7 8 8 8 9 10 10 10 10 11 11 11 11 12 12 12 12 12 12 11 11 10 10
8 8 8 8 9 8 9 8 8 9 9 9 9 8 8 8 8 9 8 8 9 8 9 9 9 9 10 10 10 10 11 11 11 11 11 11 11 11 11 10 10 10 9 9
8 8 8 9 8 8 8 8 9 9 9 9 10 9 9 8 8 9 9 9 9 9 9 9 9 9 9 10 10 11 11 11 11 11 11 11 11 10 10 10 10 10 10 9